N1HRK Weather Reports


time (UTC)temp
F
wind
direction
speed
knots
gust
knots
rain 1hr
in
rain 24hr
in
rain mn
in
humidity
%
barometer
mb
20260507124204 52 298 1.7 2.6 0.01 0.51 0.32 97 1008.1
20260507123202 51 233 0.0 0.0 0.01 0.51 0.32 97 1008.4
20260507122205 52 233 0.0 0.0 0.02 0.51 0.32 97 1008.2
20260507121203 51 233 0.0 0.0 0.02 0.50 0.31 97 1008.5
20260507120204 51 233 0.0 0.0 0.03 0.50 0.31 97 1008.4
20260507115204 51 233 0.0 0.0 0.05 0.50 0.31 97 1008.7
20260507114202 51 233 0.0 0.0 0.06 0.50 0.31 97 1008.4
20260507113203 50 233 0.0 0.0 0.06 0.50 0.31 97 1008.1
20260507112204 50 233 0.0 0.0 0.05 0.49 0.30 97 1008.2
20260507111202 50 25 0.0 0.0 0.06 0.48 0.30 97 1008.2
20260507110204 50 25 0.0 0.0 0.04 0.47 0.28 97 1008.2
20260507105204 51 17 0.0 2.6 0.04 0.45 0.27 97 1008.5
20260507104204 51 17 0.0 0.0 0.03 0.45 0.26 97 1008.3
20260507103202 51 3 0.0 0.0 0.02 0.44 0.25 97 1007.5
20260507102202 51 3 0.0 0.0 0.02 0.44 0.25 97 1007.4
20260507101233 51 46 0.0 0.0 0.02 0.43 0.24 97 1007.3
20260507101202 51 46 0.0 0.0 0.02 0.43 0.24 97 1007.3
20260507100203 52 1 0.9 3.5 0.02 0.43 0.24 97 1007.0
20260507095232 52 311 0.0 0.0 0.02 0.43 0.24 97 1007.3
20260507095202 52 311 0.0 0.0 0.02 0.42 0.24 97 1007.2
20260507094203 52 311 0.0 0.0 0.03 0.42 0.23 97 1007.7
20260507093203 52 3 0.0 0.0 0.05 0.42 0.23 97 1007.4
20260507092203 52 21 0.0 0.0 0.05 0.42 0.23 97 1007.3
20260507091203 52 21 0.0 0.0 0.06 0.42 0.23 97 1007.2
20260507090203 52 21 0.0 0.0 0.06 0.41 0.22 97 1007.1
20260507085204 52 24 0.0 1.7 0.06 0.41 0.22 97 1006.6
20260507084232 53 15 0.0 1.7 0.12 0.39 0.20 97 1007.1
20260507084202 53 15 0.9 1.7 0.12 0.39 0.20 97 1007.2
20260507083232 53 330 0.0 0.0 0.15 0.37 0.18 97 1007.1
20260507083202 53 330 0.0 0.0 0.15 0.37 0.18 97 1007.0
20260507082204 53 330 0.0 1.7 0.17 0.37 0.18 97 1006.8
20260507081234 54 329 0.0 3.5 0.16 0.36 0.17 97 1006.8
20260507081203 54 329 0.0 3.5 0.16 0.36 0.17 97 1006.8
20260507080203 54 13 0.0 2.6 0.16 0.35 0.17 97 1006.9
20260507075204 54 287 0.0 2.6 0.15 0.35 0.16 97 1007.2
20260507074232 55 153 0.0 2.6 0.11 0.30 0.12 97 1007.0
20260507074202 55 153 0.0 2.6 0.10 0.27 0.10 97 1007.1
20260507073204 56 270 2.6 5.2 0.03 0.22 0.04 97 1006.9
20260507072204 56 1 0.0 0.0 0.01 0.21 0.02 97 1006.3
20260507071202 56 1 0.0 0.0 0.00 0.20 0.01 97 1005.9
20260507070204 56 1 0.0 0.0 0.00 0.20 0.01 98 1006.0
20260507065233 56 1 0.0 0.0 0.00 0.20 0.01 97 1005.7
20260507065202 56 1 0.0 0.0 0.00 0.20 0.01 97 1005.7
20260507064203 56 1 0.0 0.0 0.00 0.20 0.01 97 1005.9
20260507063203 56 1 0.0 1.7 0.00 0.20 0.01 97 1005.8
20260507062203 56 231 0.0 0.0 0.00 0.20 0.01 97 1005.9
20260507061203 56 231 0.0 0.0 0.00 0.20 0.01 97 1006.0
20260507060202 56 231 0.0 0.0 0.00 0.20 0.01 97 1006.0
20260507055202 56 231 0.0 0.0 0.00 0.20 0.01 97 1006.1
20260507054203 56 231 0.0 0.0 0.00 0.20 0.01 97 1006.7
20260507053233 56 270 0.0 0.0 0.00 0.20 0.01 97 1006.7
20260507053202 56 270 0.0 0.0 0.00 0.20 0.01 97 1006.7
20260507052233 56 270 0.0 0.0 0.00 0.20 0.01 97 1006.8
20260507052202 56 270 0.0 0.0 0.00 0.20 0.01 97 1006.8
20260507051204 56 270 0.0 0.9 0.01 0.20 0.01 97 1006.7
20260507050204 56 240 1.7 1.7 0.01 0.20 0.01 97 1006.8
20260507045204 56 267 1.7 2.6 0.01 0.20 0.01 97 1007.1
20260507044203 56 246 0.9 2.6 0.01 0.20 0.01 97 1006.9
20260507043203 55 300 2.6 3.5 0.01 0.20 0.01 97 1006.9
20260507042203 56 262 3.5 3.5 0.01 0.20 0.01 97 1006.8
20260507041203 56 236 1.7 4.3 0.00 0.19 0.00 97 1006.8
20260507040203 56 280 0.9 1.7 0.00 0.19 0.00 97 1006.8
20260507035202 56 271 1.7 3.5 0.00 0.19 0.19 97 1007.0
20260507034202 56 236 2.6 3.5 0.00 0.19 0.19 97 1007.0
20260507033204 56 260 2.6 3.5 0.00 0.19 0.19 97 1007.1
20260507032443 56 256 1.7 2.6 0.00 0.19 0.19 97 1007.1
20260507032204 56 256 1.7 2.6 0.00 0.19 0.19 97 1007.1
20260507031233 56 242 2.6 4.3 0.00 0.19 0.19 97 1007.2
20260507031202 56 242 2.6 4.3 0.00 0.19 0.19 97 1007.2
20260507030203 56 225 0.9 4.3 0.00 0.19 0.19 97 1007.1
20260507025203 56 262 3.5 4.3 0.00 0.19 0.19 97 1006.9
20260507024203 56 226 4.3 6.1 0.00 0.19 0.19 97 1007.1
20260507023203 56 249 3.5 4.3 0.00 0.19 0.19 97 1007.3
20260507022202 56 281 1.7 4.3 0.00 0.19 0.19 97 1007.3
20260507021203 56 269 2.6 3.5 0.00 0.19 0.19 97 1007.4
20260507020203 56 233 4.3 6.1 0.00 0.19 0.19 97 1007.3
20260507015203 56 239 3.5 4.3 0.00 0.19 0.19 97 1007.2
20260507014202 56 263 3.5 5.2 0.00 0.19 0.19 97 1007.3
20260507013204 56 253 3.5 5.2 0.00 0.19 0.19 97 1007.5
20260507012203 55 260 5.2 5.2 0.00 0.19 0.19 97 1007.6
20260507011204 56 228 2.6 4.3 0.00 0.19 0.19 97 1007.6
20260507010202 56 263 3.5 6.1 0.00 0.19 0.19 97 1007.8
20260507005234 55 217 1.7 4.3 0.00 0.19 0.19 97 1007.8
20260507005203 55 217 1.7 4.3 0.00 0.19 0.19 97 1007.8
20260507004202 56 264 4.3 7.0 0.00 0.19 0.19 97 1007.7
20260507003203 56 238 2.6 6.1 0.00 0.19 0.19 97 1007.7
20260507002203 56 240 6.1 6.1 0.00 0.19 0.19 97 1007.5
20260507001202 55 302 2.6 5.2 0.00 0.19 0.19 97 1007.5
20260507000204 55 253 2.6 5.2 0.01 0.19 0.19 97 1007.4
20260506235204 56 202 2.6 7.0 0.01 0.19 0.19 97 1007.5
20260506234232 55 319 4.3 7.8 0.01 0.19 0.19 97 1007.5
20260506234202 55 259 5.2 7.8 0.01 0.19 0.19 97 1007.5
20260506233233 54 218 2.6 6.1 0.01 0.19 0.19 97 1007.4
20260506233203 55 246 5.2 7.0 0.01 0.19 0.19 97 1007.4
20260506232204 55 253 6.1 6.1 0.04 0.19 0.19 97 1007.4
20260506231204 55 260 4.3 7.8 0.05 0.19 0.19 97 1007.4
20260506230204 56 236 4.3 7.0 0.06 0.18 0.18 97 1007.4
20260506225203 55 276 4.3 8.7 0.07 0.18 0.18 97 1007.4
20260506224203 55 231 4.3 7.0 0.08 0.18 0.18 96 1007.2
20260506223204 56 252 4.3 6.1 0.09 0.18 0.18 96 1007.3
20260506222204 55 239 5.2 7.0 0.09 0.16 0.17 96 1007.3
20260506221203 55 211 2.6 9.6 0.07 0.14 0.14 96 1007.4
20260506220203 55 232 3.5 5.2 0.05 0.12 0.12 96 1007.5
20260506215234 56 260 2.6 7.0 0.04 0.11 0.11 96 1007.5
20260506215202 56 243 4.3 7.0 0.04 0.11 0.11 95 1007.6
20260506214204 56 242 4.3 7.8 0.03 0.10 0.10 95 1007.8
20260506213233 56 217 4.3 5.2 0.03 0.09 0.09 95 1007.8
20260506213202 56 257 3.5 6.1 0.03 0.09 0.09 95 1007.8
20260506212203 56 246 2.6 9.6 0.02 0.08 0.08 94 1008.0
20260506211204 56 239 3.5 7.0 0.02 0.08 0.08 94 1008.0
20260506210202 57 174 3.5 7.8 0.01 0.07 0.07 93 1008.1
20260506205203 56 221 6.1 9.6 0.02 0.07 0.07 95 1008.0
20260506204202 56 235 5.2 7.0 0.02 0.07 0.07 94 1008.1
20260506203204 56 225 5.2 7.0 0.02 0.06 0.07 93 1008.2
20260506202204 57 249 6.1 7.8 0.03 0.06 0.06 93 1008.2
20260506201203 57 263 3.5 8.7 0.06 0.06 0.06 93 1008.4
20260506200203 57 253 4.3 10.4 0.06 0.06 0.06 93 1008.4
20260506195233 57 240 6.1 8.7 0.05 0.05 0.05 92 1008.5
20260506195202 57 240 6.1 8.7 0.05 0.05 0.05 92 1008.5
20260506194204 58 202 3.5 8.7 0.05 0.05 0.05 92 1008.6
20260506193203 58 240 5.2 7.0 0.05 0.05 0.05 92 1008.6
20260506192240 58 240 3.5 6.1 0.03 0.03 0.03 90 1008.7
20260506192204 58 240 3.5 6.1 0.03 0.03 0.03 90 1008.7
20260506191233 59 248 3.5 11.3 0.01 0.01 0.01 88 1008.9
20260506191202 59 248 3.5 11.3 0.01 0.01 0.01 88 1008.9
20260506190203 60 233 6.1 12.2 0.00 0.00 0.00 85 1009.0
20260506185233 60 245 7.0 11.3 0.00 0.00 0.00 80 1009.1
20260506185202 60 245 7.0 11.3 0.00 0.00 0.00 80 1009.1
20260506184202 60 262 4.3 9.6 0.00 0.00 0.00 76 1009.2
20260506183202 61 225 4.3 10.4 0.00 0.00 0.00 76 1009.4
20260506182203 62 283 2.6 11.3 0.00 0.00 0.00 74 1009.4
20260506181202 62 200 4.3 13.0 0.00 0.00 0.00 72 1009.5
20260506180204 62 229 7.0 8.7 0.00 0.00 0.00 74 1009.5
20260506175203 62 243 7.0 10.4 0.00 0.00 0.00 74 1009.6
20260506174202 63 228 3.5 8.7 0.00 0.00 0.00 71 1009.9
20260506173203 64 284 3.5 8.7 0.00 0.00 0.00 71 1009.8
20260506172202 64 229 3.5 7.8 0.00 0.00 0.00 71 1010.2
20260506171203 63 246 6.1 12.2 0.00 0.00 0.00 71 1010.1
20260506170203 64 274 5.2 9.6 0.00 0.00 0.00 70 1010.0
20260506165204 64 271 5.2 9.6 0.00 0.00 0.00 70 1010.1
20260506164203 64 198 6.1 11.3 0.00 0.00 0.00 70 1010.3
20260506163204 64 255 5.2 9.6 0.00 0.00 0.00 72 1010.6
20260506162204 63 253 4.3 9.6 0.00 0.00 0.00 74 1010.7
20260506161203 62 208 5.2 13.0 0.00 0.00 0.00 73 1010.8
20260506160203 63 236 5.2 10.4 0.00 0.00 0.00 72 1011.0
20260506155203 63 245 7.8 9.6 0.00 0.00 0.00 71 1011.2
20260506154202 64 208 5.2 9.6 0.00 0.00 0.00 67 1011.0
20260506153203 65 233 7.8 12.2 0.00 0.00 0.00 66 1010.8
20260506152234 65 225 12.2 13.0 0.00 0.00 0.00 68 1011.2
20260506152203 65 225 12.2 13.0 0.00 0.00 0.00 68 1011.2
20260506151203 64 271 3.5 10.4 0.00 0.00 0.00 68 1011.2
20260506150204 62 263 7.0 11.3 0.00 0.00 0.00 70 1011.2
20260506145204 64 233 7.8 10.4 0.00 0.00 0.00 71 1011.5
20260506144203 64 278 7.0 9.6 0.00 0.00 0.00 70 1011.2
20260506143203 64 256 7.0 12.2 0.00 0.00 0.00 69 1011.3
20260506142203 63 235 3.5 10.4 0.00 0.00 0.00 71 1011.4
20260506141203 64 274 2.6 11.3 0.00 0.00 0.00 70 1011.4
20260506140203 64 242 4.3 7.0 0.00 0.00 0.00 73 1011.3
20260506135204 63 253 2.6 9.6 0.00 0.00 0.00 74 1010.8
20260506134203 63 260 7.0 12.2 0.00 0.00 0.00 73 1011.2
20260506133204 63 252 6.1 10.4 0.00 0.00 0.00 72 1011.4
20260506132234 63 263 3.5 7.0 0.00 0.00 0.00 73 1011.5
20260506132203 63 210 3.5 10.4 0.00 0.00 0.00 72 1011.5
20260506131203 62 249 3.5 8.7 0.00 0.00 0.00 76 1011.6
20260506130204 61 235 4.3 7.0 0.00 0.00 0.00 77 1011.7
20260506125204 61 233 3.5 5.2 0.00 0.00 0.00 78 1011.7